Regional Weather Roundup
Issued by NWS Sioux Falls, SD

Home | Current Version | Previous Version | Text Only | Print | Product List | Glossary On
Versions: 1 2 3 4 5 6 7 8 9 10 11 12 13 14 15 16 17 18 19 20 21 22 23 24 25 26 27 28 29 30 31 32 33 34 35 36 37 38 39 40 41 42 43 44 45 46 47 48 49 50
003
ASUS43 KFSD 110010
RWRFSD

WEATHER ROUNDUP FOR SE SOUTH DAKOTA/SW MINNESOTA/NW IOWA
NATIONAL WEATHER SERVICE SIOUX FALLS SD
600 PM CST WED FEB 10 2016

NOTE: "FAIR" INDICATES FEW OR NO CLOUDS BELOW 12,000 FEET WITH NO
SIGNIFICANT WEATHER AND OR OBSTRUCTIONS TO VISIBILITY.


SDZ038>040-050-052>070-110100-
SOUTHEAST SOUTH DAKOTA

CITY           SKY/WX    TMP DP  RH WIND       PRES   REMARKS
BROOKINGS      CLOUDY    11   6  81 E9        30.10R WCI  -2
CHAMBERLAIN    CLOUDY    31  25  78 NE13      30.05R WCI  22
6HR MIN TEMP:  31; 6HR MAX TEMP:  41;

HURON          CLOUDY    20  13  74 E10       30.11R WCI   9
6HR MIN TEMP:  20; 6HR MAX TEMP:  25;

MADISON        CLOUDY    14  14 100 E12       30.08R WCI   0
MITCHELL       CLOUDY    23  16  74 E10       30.09R WCI  12
6HR MIN TEMP:  23; 6HR MAX TEMP:  31;

SIOUX FALLS    CLOUDY    16  10  77 E12       30.10R WCI   3
6HR MIN TEMP:  16; 6HR MAX TEMP:  18;

WINNER         FAIR      37  28  70 NE16      30.02R
YANKTON        CLOUDY    21  16  79 NE12      30.08R WCI   9
$$

MNZ071-072-080-081-089-090-097-098-110100-
SOUTHWEST MINNESOTA

CITY           SKY/WX    TMP DP  RH WIND       PRES   REMARKS
FAIRMONT       CLOUDY    10   0  61 NE3       30.11R
JACKSON        FLURRIES  12   5  73 NE9       30.10R WCI   0
LUVERNE        CLOUDY    16  10  79 E8        30.11R WCI   5
MARSHALL       FLURRIES  11   5  77 E3        30.16R
6HR MIN TEMP:  10; 6HR MAX TEMP:  11; 6HR PCP: TRACE;

MONTEVIDEO     FLURRIES  10   3  72 NE3       30.19R
PIPESTONE      CLOUDY    12   3  67 E8        30.08R WCI   1
REDWOOD FALLS  CLOUDY    13   2  61 NE6       30.15R WCI   4
TRACY          CLOUDY    12   7  81 E3        30.14R
WINDOM         CLOUDY    10   3  72 CALM      30.11R
WORTHINGTON    CLOUDY    10   3  72 NE10      30.10R WCI  -3
$$

IAZ001>003-012>014-020>022-031-032-NEZ013-014-SDZ071-110100-
NORTHWEST IOWA

CITY           SKY/WX    TMP DP  RH WIND       PRES   REMARKS
CHEROKEE       CLOUDY    15  12  87 E8        30.10R WCI   5
DENISON        CLOUDY    18  16  93 E12G17    30.03R WCI   5
ESTHERVILLE    CLOUDY    11   7  84 NE9       30.10R WCI  -2
LE MARS        CLOUDY    18  16  93 E8        30.10R WCI   7
ORANGE CITY    CLOUDY    16  12  86 E9        30.08R WCI   4
SHELDON        CLOUDY    14  10  85 E12       30.08R WCI   0
SIOUX CITY     CLOUDY    22  15  75 E13       30.07R WCI  10
6HR MIN TEMP:  22; 6HR MAX TEMP:  31;

SPENCER        CLOUDY    13   7  77 E10       30.10R WCI   0
6HR MIN TEMP:  13; 6HR MAX TEMP:  15; 6HR PCP: TRACE;

STORM LAKE     CLOUDY    14  12  92 E14       30.06R WCI  -1
$$

ABBREVIATIONS USED IN REMARKS
   TC - TEMPERATURE IN CELSIUS
  WCI - WIND CHILL INDEX
   HX - HEAT INDEX
  VSB - VISIBILITY





USA.gov is the U.S. government's official web portal to all federal, state and local government web resources and services.